Location: Pasadena-CA
(34.1440°N, 118.1100°W)
Time: 23:41:43
(UTC-08:00)

Tiangong - Visible Passes

Search period start: 08 December 2023 00:00
Search period end: 18 December 2023 00:00
Orbit: 372 x 383 km, 41.5° (Epoch: 08 December)

Date Brightness Start Highest point End Pass type
(mag) Time Alt. Az. Time Alt. Az. Time Alt. Az.
13 Dec 0.6 06:02:47 10° SSW 06:05:10 20° SE 06:07:34 10° E visible
15 Dec -0.7 05:34:52 10° SW 05:37:45 36° SSE 05:40:39 10° ENE visible
16 Dec 0.8 04:36:38 17° ESE 04:36:38 17° ESE 04:38:05 10° E visible
16 Dec -2.1 06:09:15 10° WSW 06:12:19 60° NNW 06:15:24 10° ENE visible
17 Dec -1.9 05:10:26 67° SE 05:10:26 67° SE 05:13:22 10° ENE visible
